Погода в Сан-Хосе-де-Майо

Уругвай     34°20′30″S   56°42′03″W
темп.,
°C
ветер,
м/с
пор.,
м/с
влажн.,
%
обл.,
%
осадки,
мм/ч
давл.,
гПа
погр.,
м
19 апреля, пн
пн1900:00+15св4119344 0.0 1020223
03:00+14св310965 0.0 1020223
06:00+13св38953 0.0 1021155
09:00+15св49860 0.0 1022267
12:00+20св57690 0.0 1022749
15:00+22всв56670 0.0 10201067
18:00+18всв37850 0.0 1020128
21:00+15всв411900 0.0 1021209
20 апреля, вт
вт2000:00+14всв514900 0.0 1021346
03:00+13всв413960 0.0 1021335
06:00+13всв3129817 0.0 1021300
09:00+16всв513922 0.0 1022470
12:00+21св7976100 0.0 10221102
15:00+20всв5979100 0.1 1020826
18:00+18в36850 0.0 1020105
21:00+16всв614850 0.0 1020414
21 апреля, ср
ср2100:00+15всв616910 0.0 1020534
03:00+17всв81585100 0.0 1019797
06:00+16всв513890 0.0 1020582
09:00+17всв615890 0.0 1021741
12:00+22св8127535 0.0 10201204
15:00+23всв7127540 0.1 10181421
18:00+20всв714770 0.1 1017584
21:00+19всв716820 0.1 1018579
22 апреля, чт
чт2200:00+17св6168499 0.0 1019579
03:00+16св6158797 0.0 1019516
06:00+16св6158771 0.0 1018512
09:00+17св7158910 0.0 1019575
12:00+21св71076100 0.0 1018808
15:00+23св687461 0.0 10151089
18:00+20св4985100 0.0 1015214
21:00+18св41285100 0.0 1016307
23 апреля, пт
пт2300:00+17св51480100 0.0 1016412
03:00+16св61480100 0.0 1016415
06:00+15св513851 0.0 1016375
09:00+17св512855 0.0 1017385
12:00+21ссв68705 0.0 1015676
15:00+23ссв5670100 0.0 1014911
18:00+19св2281100 0.0 101325
21:00+17св2285100 0.0 101416